Find Starlink 31749

NORAD ID: 59631 Int'l Des: 2024-082 Owner: SPXS Country: US Constellation: starlink operational
LEOCIRCULAR

当前视图

正在加载3D地球...

About Starlink 31749

Starlink 31749 (NORAD 59631) is a starlink constellation satellite (v2 mini) launched May 3, 2024 by SPXS of US. It operates in LEO, CIRCULAR orbit with a mass of 730.00 kg.

即将过境

Passes for default location (London). Set your location on the main map for personalized predictions.

高度历史

Loading altitude history...

两行轨道根数

1 59631U 24082A 26255.15757066 .00000695 00000-0 34753-4 0 9993
2 59631 43.0023 166.4079 0000928 278.9898 81.0848 15.27581483133539
Epoch: Sep 12, 2026 • Age: 23 hours

当前状态

高度 482.4 km
远地点 / 近地点 N/A
速度 7.63 km/s
星下点 9.61°N, 58.55°W
发射日期 May 3, 2024
运行时间 2.3 years
类型 internet

技术详情

分类 Payload
质量 730.00 kg
干质量 700.00 kg
总质量 730.00 kg
长度 0.30 m
直径 4.10 m
跨度 29.00 m
形状 Box + pan
制造商 SPXS
平台类型 Starlink V2M
阶段状态 In Orbit
所有者/国家 SPXS/US

Most Searched